Meath Environmental Platform

Observations for Trim Market St

Time AQI Temp °C Hum % Pres Pa CO μg/m³ H₂S μg/m³ NO μg/m³ NO₂ μg/m³ O₃ μg/m³ SO₂ μg/m³ PM1 μg/m³ PM2.5 μg/m³ PM10 μg/m³
Tuesday 25 August 2026
10:48 2 27.7 42 65,621 0.25 0 1.61 12.17 58.12 0 0.71 4.35 4.36
10:43 2 27.5 44 65,414 0.29 0 1.48 12.09 62.3 0 0 3.24 3.57
10:37 2 27.1 46 65,007 0.41 0 1.68 12.13 56.99 0 0.71 3.66 3.68
10:36 2 27 46 64,829 0.47 0 1.7 14.71 52.49 0 0.71 3.13 3.44
10:35 2 26.9 47 64,653 0.43 0 1.67 14.28 53.77 0 1.43 4.15 4.47
10:34 2 26.8 47 64,517 0.44 0 1.66 13.21 58.03 0 1.43 4.13 4.48
10:33 2 26.6 48 64,301 0.43 0 1.74 13.86 57.88 0 0.71 3.59 3.73
10:32 2 26.4 48 64,048 0.42 0 1.78 15.37 58.21 0 0 2.54 2.98
10:31 2 26.3 48 63,651 0.4 0 1.75 14.39 58.02 0 0.71 3.56 5.26
10:30 2 26.1 49 63,252 0.41 0 1.85 13.29 55.75 0 0.71 4.04 4.52
10:29 2 25.9 50 62,717 0.38 0 1.88 11.95 59.41 0 0.71 3.5 4.54
10:28 2 25.7 50 61,980 0.37 0 1.86 14.1 56.52 0 1.43 3.47 3.81
10:27 2 25.5 51 61,091 0.37 0 1.9 11.57 53.95 0 1.43 3.95 4.57
10:26 2 25.3 52 59,978 0.36 0 1.92 13.53 55.08 0 1.43 4.44 6.05
10:25 2 25.1 52 58,807 0.35 0 1.79 11.99 55.65 0 0.71 2.87 3.13
10:24 2 24.9 53 57,316 0.32 0 1.78 14.51 55.93 0 0.71 3.36 3.88
10:18 2 23.7 54 56,079 0.23 0 1.67 14.04 64.08 0 0.71 2.79 3.19
10:15 2 23.4 54 56,493 0.18 0 1.5 14.78 64.47 0 1.43 3.28 4.65
10:14 2 23.3 55 56,605 0.14 0 1.36 14.13 65.1 0 0.71 3.27 3.94
10:10 2 22.6 55 57,232 0.06 0 1.31 13.04 65.08 0 0 2.74 3.95